COSMOS 2499 DEB, 56570

Orbit data source: Space-Track

COSMOS 2499 DEB, 56570 is space debris in LEO originally from a launch on Fri, 23 May 2014 UTC launched from the Plesetsk Missile And Space Complex (PKMTR). Debris objects in space refer to the collection of defunct objects orbiting the Earth. Examples of debris include non-operational satellites, rocket bodies, and fragments generated from explosions, collisions, or faulty payload assembly.

Loading next visibility...
Identifier
56570, 2014-028BD
Orbit
LEO
Country
Flag of CISCIS
Related business
Manufacturer
TsNIIKhM
Mission
Spacecraft
Bus & Motor
Unknown
Mass
Unknown
Launch date (UTC)
2014-05-23 (12 years ago)
Launch vehicle
Unknown
Launch site
Plesetsk Missile And Space Complex (PKMTR)
Object type
Payload
Rocket body
Debris
Shape & HBR
Unknown shape, 0.1 m
Radar Cross Section
Small (<0.1 m²)

Expand to show TLE details & history
Last TLE update: 2 days ago

TLE from 2 days ago
0 COSMOS 2499 DEB
1 56570U 14028BD  25348.40970130  .00005140  00000-0  20436-1 0  9990
2 56570  82.4217  20.3953 0105221  73.5317 287.7319 12.85387615136281
Epoch: 2025-12-14T09:49Z
TLE epoch observation values (Epoch: 2025-12-14T09:49:58.192Z)
Latitude
0.00002°
Longitude
149.57981°
Altitude
1,298.747 km
Speed
7.218 km/s
True Right ascension
01h 21m 34s
True Declination
0° 00' 00"
Sunlit
Object was in daylight at epoch
Visualization orbit readout
Latitude
Unknown
Longitude
Unknown
Altitude
Unknown
Speed
Unknown
Apparent Right ascension
Unknown
Apparent Declination
Unknown
Sunlit
N/A
Visualization observer readout
Local Sidereal Time
11:11:22
Azimuth
Unknown
Elevation
Unknown
Doppler factor
Unknown
Orbital elements
Apogee altitude
1,398.149 km
Perigee altitude
1,236.207 km
Semi-major axis
7,695.315 km
Eccentricity
0.01052
Inclination
82.4217°
RAAN
20.3953°
Arg. of periapsis
73.5317°
True anomaly
286.5789°
Mean anomaly
287.7319°
Eccentric anomaly
287.15585°
Mean motion
3.21517 °/min
Orbital period
111.97 mins
BSTAR
0.020436
Loading maneuver chart data...
Computing Atmospheric mass density...
Loading historical data...
Loading historical data...
Loading historical data...
Loading historical data...
Loading historical data...
Loading historical data...
Loading historical data...

Documentation

Showing up to 5 results
|